Date String (YYYY-MM-DD hh:mm:ss) UTC,Instrument flags,Ambient pressure (hPa),Sample flow (lpm),Bypass flow (lpm),Sample temperature (°C),Ambient temperature (°C),ASC tube jacket temperature (°C),LED temperature (°C),Box temperature (°C),Sample RH (%),Span deviation,Mass concentration (μg/m³),Mass concentration (μg/m³),Mass concentration (μg/m³)
DateTimeUTC,F1_M11,P_M11,Q1_M11,Q2_M11,T1_M11,T2_M11,T3_M11,T4_M11,T5_M11,U1_M11,ZSPAN_M11,X0_M11,X2_M11,X1_M11
2023-01-05 00:00:00,,0823.9,5.02,0.00,21.9,20.9,00.0,30.8,23.6,07.6,0000.0,0001.51,0000.97,0000.82
2023-01-05 00:01:00,,0823.9,4.99,0.00,22.0,22.0,00.0,30.8,23.9,08.0,0000.0,0004.15,0002.08,0001.78
2023-01-05 00:02:00,,0823.8,5.01,0.00,22.2,22.9,00.0,30.8,24.2,07.8,0000.0,0005.43,0002.98,0002.65
2023-01-05 00:03:00,,0823.8,4.99,0.00,22.3,22.9,00.0,30.9,24.3,07.8,0000.0,0006.39,0003.48,0003.26
2023-01-05 00:04:00,,0823.8,4.98,0.00,22.3,22.4,00.0,31.0,24.3,07.6,0000.0,0007.60,0003.87,0003.65
2023-01-05 00:05:00,,0823.8,4.97,0.00,22.3,22.0,00.0,31.0,24.2,07.4,0000.0,0008.47,0004.19,0003.95
2023-01-05 00:06:00,,0823.8,5.07,0.00,22.3,21.7,00.0,31.0,24.1,07.3,0000.0,0008.91,0004.53,0004.26
2023-01-05 00:07:00,,0823.8,5.01,0.00,22.3,21.4,00.0,31.0,24.1,07.1,0000.0,0009.46,0004.80,0004.52
2023-01-05 00:08:00,,0823.8,4.98,0.00,22.3,21.1,00.0,31.1,24.0,06.9,0000.0,0010.01,0004.99,0004.69
2023-01-05 00:09:00,,0823.8,5.01,0.00,22.3,20.9,00.0,31.1,24.0,07.0,0000.0,0010.10,0005.12,0004.82
2023-01-05 00:10:00,,0823.8,4.99,0.00,22.2,20.9,00.0,31.1,23.9,07.1,0000.0,0010.27,0005.26,0004.96
2023-01-05 00:11:00,,0823.7,5.01,0.00,22.2,20.8,00.0,31.1,23.9,07.1,0000.0,0010.14,0005.14,0004.86
2023-01-05 00:12:00,,0823.7,5.00,0.00,22.2,20.8,00.0,31.1,23.9,07.4,0000.0,0008.99,0004.74,0004.50
2023-01-05 00:13:00,,0823.8,5.00,0.00,22.2,20.9,00.0,31.1,23.9,07.6,0000.0,0008.68,0004.53,0004.28
2023-01-05 00:14:00,,0823.8,5.00,0.00,22.2,20.9,00.0,31.0,23.9,07.8,0000.0,0008.84,0004.52,0004.22
2023-01-05 00:15:00,,0823.8,5.00,0.00,22.2,20.9,00.0,31.0,23.9,07.7,0000.0,0009.09,0004.54,0004.20
2023-01-05 00:16:00,,0823.8,5.00,0.00,22.2,20.9,00.0,31.0,23.9,07.3,0000.0,0008.62,0004.52,0004.17
2023-01-05 00:17:00,,0823.8,5.01,0.00,22.2,20.8,00.0,31.0,23.9,07.0,0000.0,0008.39,0004.33,0003.98
2023-01-05 00:18:00,,0823.7,5.01,0.00,22.1,20.8,00.0,31.0,23.8,06.9,0000.0,0007.97,0004.12,0003.78
2023-01-05 00:19:00,,0823.7,5.00,0.00,22.1,20.6,00.0,31.0,23.7,06.9,0000.0,0007.51,0004.00,0003.64
2023-01-05 00:20:00,,0823.7,5.00,0.00,22.1,20.4,00.0,31.0,23.7,07.0,0000.0,0007.40,0003.92,0003.56
2023-01-05 00:21:00,,0823.7,5.01,0.00,22.0,20.2,00.0,31.0,23.6,07.1,0000.0,0007.26,0003.84,0003.48
2023-01-05 00:22:00,,0823.8,5.01,0.00,22.0,20.2,00.0,31.0,23.5,07.0,0000.0,0007.06,0003.77,0003.43
2023-01-05 00:23:00,,0823.9,5.00,0.00,22.0,20.6,00.0,30.9,23.6,07.1,0000.0,0006.74,0003.66,0003.34
2023-01-05 00:24:00,,0823.9,5.00,0.00,22.1,21.6,00.0,30.9,23.9,07.0,0000.0,0006.23,0003.44,0003.16
2023-01-05 00:25:00,,0823.7,5.00,0.00,22.2,22.5,00.0,30.9,24.2,06.8,0000.0,0005.07,0003.00,0002.65
2023-01-05 00:26:00,,0823.8,5.00,0.00,22.3,22.3,00.0,30.9,24.2,06.6,0000.0,0003.23,0002.29,0002.01
2023-01-05 00:27:00,,0823.7,4.99,0.00,22.2,21.8,00.0,31.0,24.1,06.6,0000.0,0002.68,0001.74,0001.53
2023-01-05 00:28:00,,0823.7,5.01,0.00,22.2,21.5,00.0,31.0,24.0,06.6,0000.0,0002.51,0001.53,0001.33
2023-01-05 00:29:00,,0823.8,5.01,0.00,22.2,21.2,00.0,31.0,23.9,06.7,0000.0,0002.41,0001.44,0001.25
2023-01-05 00:30:00,,0823.9,5.00,0.00,22.2,21.1,00.0,31.0,23.9,06.8,0000.0,0002.15,0001.32,0001.17
2023-01-05 00:31:00,,0823.9,4.99,0.00,22.2,21.0,00.0,31.0,23.9,06.8,0000.0,0002.04,0001.23,0001.09
2023-01-05 00:32:00,,0823.9,5.00,0.00,22.2,21.0,00.0,31.0,23.9,06.7,0000.0,0001.89,0001.11,0000.97
2023-01-05 00:33:00,,0823.9,4.99,0.00,22.2,21.0,00.0,31.0,23.9,06.7,0000.0,0001.75,0000.99,0000.88
2023-01-05 00:34:00,,0824.0,5.01,0.00,22.2,21.0,00.0,31.0,23.9,06.6,0000.0,0001.56,0000.85,0000.76
2023-01-05 00:35:00,,0824.0,5.00,0.00,22.2,20.9,00.0,31.0,23.9,06.8,0000.0,0001.38,0000.73,0000.65
2023-01-05 00:36:00,,0824.0,5.00,0.00,22.2,20.9,00.0,31.0,23.9,06.8,0000.0,0001.32,0000.69,0000.61
2023-01-05 00:37:00,,0823.9,5.01,0.00,22.2,20.9,00.0,31.0,23.8,06.6,0000.0,0001.27,0000.65,0000.58
2023-01-05 00:38:00,,0823.8,5.00,0.00,22.2,20.8,00.0,31.0,23.8,06.5,0000.0,0000.97,0000.60,0000.54
2023-01-05 00:39:00,,0823.9,5.00,0.00,22.1,20.8,00.0,31.0,23.8,06.7,0000.0,0000.90,0000.59,0000.52
2023-01-05 00:40:00,,0823.8,5.00,0.00,22.1,20.7,00.0,31.0,23.8,06.8,0000.0,0000.82,0000.54,0000.48
2023-01-05 00:41:00,,0823.7,4.99,0.00,22.1,20.6,00.0,31.0,23.7,06.3,0000.0,0000.77,0000.51,0000.45
2023-01-05 00:42:00,,0823.8,4.99,0.00,22.0,20.5,00.0,31.0,23.6,06.2,0000.0,0000.69,0000.47,0000.42
2023-01-05 00:43:00,,0824.0,4.98,0.00,22.0,20.4,00.0,31.0,23.6,06.3,0000.0,0000.69,0000.46,0000.40
2023-01-05 00:44:00,,0824.0,5.01,0.00,22.0,20.4,00.0,30.9,23.6,06.4,0000.0,0000.74,0000.44,0000.38
2023-01-05 00:45:00,,0824.0,5.01,0.00,22.0,20.6,00.0,30.9,23.6,06.6,0000.0,0000.90,0000.46,0000.38
2023-01-05 00:46:00,,0823.9,4.99,0.00,22.0,21.4,00.0,30.9,23.9,06.4,0000.0,0000.90,0000.45,0000.38
2023-01-05 00:47:00,,0824.0,5.00,0.00,22.2,22.4,00.0,30.9,24.1,06.3,0000.0,0000.91,0000.46,0000.37
2023-01-05 00:48:00,,0824.0,5.00,0.00,22.3,22.8,00.0,30.9,24.3,06.5,0000.0,0001.03,0000.48,0000.37
2023-01-05 00:49:00,,0824.0,4.97,0.00,22.3,22.3,00.0,31.0,24.2,06.6,0000.0,0001.20,0000.51,0000.37
2023-01-05 00:50:00,,0823.8,5.01,0.00,22.3,21.7,00.0,31.0,24.1,06.9,0000.0,0001.11,0000.49,0000.37
2023-01-05 00:51:00,,0823.9,5.01,0.00,22.3,21.4,00.0,31.0,23.9,06.9,0000.0,0001.12,0000.50,0000.37
2023-01-05 00:52:00,,0823.8,5.00,0.00,22.2,21.1,00.0,31.0,23.8,07.0,0000.0,0001.12,0000.49,0000.37
2023-01-05 00:53:00,,0823.7,4.99,0.00,22.2,20.9,00.0,31.0,23.8,07.6,0000.0,0001.19,0000.52,0000.38
2023-01-05 00:54:00,,0823.5,4.99,0.00,22.1,20.7,00.0,31.0,23.7,07.4,0000.0,0001.20,0000.53,0000.39
2023-01-05 00:55:00,,0823.6,5.01,0.00,22.1,20.5,00.0,31.0,23.6,07.3,0000.0,0001.22,0000.56,0000.39
2023-01-05 00:56:00,,0823.6,5.01,0.00,22.0,20.3,00.0,30.9,23.5,07.5,0000.0,0001.18,0000.60,0000.41
2023-01-05 00:57:00,,0823.8,5.00,0.00,22.0,20.2,00.0,30.9,23.4,07.9,0000.0,0001.39,0000.74,0000.51
2023-01-05 00:58:00,,0823.7,5.00,0.00,21.9,20.2,00.0,30.9,23.4,07.5,0000.0,0001.62,0000.92,0000.66
2023-01-05 00:59:00,,0823.5,5.01,0.00,21.9,20.4,00.0,30.9,23.5,07.4,0000.0,0001.67,0001.02,0000.76
